QPF
0.03 0.02 0.02 0.04 0.04 0.04 0.03 0.02 0.02 0.02 0.02 0.02 0.02 0.02 0.03 0.03 0.02 0.02 0.02 0.02 0.02 0.04 0.05 0.05 0.05 0.05 0.05 0.04 0.04 0.03 0.02 0.03 0.03 0.03 0.04 0.04 0.03 0.02 0.02 0.02 0.02 0.03 0.04
0.02 0.03 0.03 0.03 0.04 0.05 0.06 0.04 0.04 0.03 0.03 0.02 0.02 0.01 0.03 0.04 0.03 0.02 0.02 0.03 0.03 0.04 0.06 0.07 0.07 0.07 0.06 0.05 0.05 0.04 0.04 0.03 0.02 0.03 0.03 0.03 0.03 0.02 0.02 0.02 0.02 0.02 0.04
0.03 0.03 0.04 0.04 0.04 0.04 0.04 0.05 0.05 0.05 0.04 0.03 0.03 0.02 0.02 0.04 0.04 0.03 0.02 0.02 0.03 0.04 0.05 0.06 0.07 0.08 0.07 0.06 0.08 0.08 0.07 0.05 0.04 0.03 0.02 0.03 0.03 0.02 0.02 0.02 0.02 0.02 0.03
0.04 0.05 0.05 0.05 0.05 0.05 0.05 0.05 0.05 0.05 0.05 0.04 0.03 0.03 0.02 0.03 0.05 0.04 0.03 0.03 0.03 0.04 0.06 0.06 0.08 0.09 0.07 0.07 0.08 0.09 0.11 0.09 0.06 0.04 0.03 0.02 0.02 0.02 0.01 0.01 0.02 0.02 0.03
0.06 0.06 0.06 0.06 0.06 0.06 0.04 0.04 0.03 0.04 0.04 0.04 0.04 0.03 0.03 0.03 0.06 0.06 0.03 0.03 0.03 0.05 0.07 0.08 0.08 0.09 0.10 0.09 0.09 0.08 0.10 0.10 0.08 0.07 0.05 0.04 0.03 0.02 0.02 0.01 0.01 0.02 0.03
0.05 0.06 0.07 0.07 0.06 0.05 0.04 0.04 0.03 0.03 0.03 0.03 0.03 0.03 0.03 0.03 0.04 0.08 0.04 0.02 0.02 0.04 0.07 0.08 0.08 0.08 0.10 0.10 0.09 0.07 0.06 0.08 0.08 0.07 0.07 0.07 0.05 0.04 0.03 0.02 0.02 0.02 0.03
0.05 0.05 0.05 0.07 0.08 0.06 0.05 0.05 0.04 0.03 0.03 0.03 0.03 0.03 0.03 0.03 0.03 0.06 0.07 0.03 0.02 0.04 0.06 0.07 0.08 0.07 0.08 0.10 0.09 0.07 0.05 0.06 0.07 0.07 0.07 0.08 0.07 0.07 0.06 0.05 0.04 0.03 0.03
0.05 0.06 0.06 0.06 0.06 0.06 0.06 0.06 0.06 0.05 0.04 0.03 0.03 0.03 0.04 0.04 0.04 0.05 0.07 0.05 0.03 0.04 0.04 0.05 0.06 0.06 0.07 0.07 0.07 0.07 0.05 0.05 0.06 0.07 0.07 0.07 0.08 0.08 0.08 0.09 0.08 0.06 0.04
0.05 0.05 0.06 0.07 0.07 0.06 0.05 0.05 0.05 0.05 0.05 0.04 0.03 0.03 0.03 0.04 0.04 0.05 0.06 0.06 0.04 0.04 0.04 0.03 0.04 0.05 0.06 0.05 0.05 0.04 0.04 0.04 0.04 0.06 0.06 0.05 0.07 0.08 0.08 0.09 0.10 0.09 0.06
0.05 0.07 0.07 0.07 0.06 0.08 0.07 0.05 0.05 0.05 0.05 0.04 0.03 0.03 0.02 0.03 0.04 0.05 0.05 0.06 0.05 0.04 0.04 0.04 0.04 0.05 0.06 0.05 0.04 0.03 0.02 0.03 0.03 0.04 0.05 0.06 0.06 0.07 0.08 0.08 0.08 0.08 0.06
0.04 0.06 0.07 0.07 0.07 0.07 0.07 0.07 0.07 0.05 0.04 0.04 0.04 0.03 0.03 0.02 0.03 0.04 0.05 0.05 0.05 0.04 0.04 0.04 0.04 0.05 0.06 0.05 0.05 0.04 0.03 0.02 0.02 0.03 0.04 0.06 0.06 0.07 0.10 0.12 0.12 0.10 0.09
0.03 0.04 0.05 0.07 0.08 0.08 0.08 0.07 0.08 0.07 0.06 0.05 0.04 0.04 0.03 0.03 0.03 0.03 0.04 0.04 0.05 0.05 0.05 0.04 0.04 0.04 0.05 0.05 0.05 0.05 0.03 0.02 0.02 0.02 0.03 0.05 0.05 0.06 0.09 0.12 0.13 0.11 0.10
0.05 0.04 0.04 0.05 0.06 0.08 0.10 0.09 0.09 0.08 0.07 0.06 0.05 0.05 0.04 0.03 0.03 0.04 0.04 0.03 0.04 0.05 0.05 0.05 0.04 0.04 0.05 0.05 0.05 0.05 0.03 0.02 0.03 0.03 0.02 0.03 0.04 0.05 0.06 0.08 0.11 0.10 0.09
0.04 0.05 0.05 0.05 0.05 0.06 0.07 0.09 0.09 0.08 0.07 0.06 0.05 0.05 0.05 0.04 0.04 0.05 0.06 0.05 0.04 0.05 0.06 0.05 0.04 0.05 0.05 0.05 0.04 0.04 0.02 0.02 0.02 0.02 0.03 0.03 0.04 0.05 0.05 0.05 0.07 0.07 0.07
0.03 0.04 0.05 0.06 0.06 0.06 0.07 0.08 0.09 0.09 0.08 0.06 0.05 0.05 0.04 0.04 0.03 0.04 0.06 0.06 0.04 0.04 0.05 0.05 0.04 0.04 0.04 0.04 0.04 0.03 0.02 0.01 0.01 0.01 0.01 0.02 0.03 0.05 0.05 0.04 0.05 0.06 0.08
0.01 0.02 0.03 0.04 0.05 0.07 0.07 0.07 0.08 0.08 0.09 0.08 0.07 0.06 0.05 0.04 0.03 0.03 0.04 0.06 0.05 0.03 0.03 0.04 0.03 0.03 0.03 0.04 0.03 0.03 0.03 0.02 0.01 0.01 0.01 0.01 0.02 0.03 0.04 0.04 0.03 0.04 0.06
0.01 0.02 0.02 0.03 0.04 0.05 0.06 0.05 0.05 0.06 0.06 0.06 0.07 0.06 0.05 0.04 0.03 0.03 0.03 0.05 0.06 0.05 0.04 0.03 0.03 0.03 0.03 0.03 0.03 0.03 0.02 0.02 0.01 0.01 0.01 0.01 0.02 0.03 0.04 0.04 0.04 0.04 0.04
0.02 0.02 0.02 0.03 0.04 0.04 0.05 0.04 0.04 0.05 0.04 0.04 0.05 0.06 0.05 0.04 0.04 0.04 0.04 0.04 0.05 0.05 0.04 0.04 0.03 0.03 0.03 0.03 0.03 0.03 0.03 0.03 0.02 0.01 0.01 0.01 0.02 0.02 0.03 0.04 0.04 0.03 0.03
0.02 0.02 0.02 0.03 0.04 0.04 0.04 0.04 0.04 0.05 0.04 0.04 0.04 0.05 0.05 0.05 0.04 0.04 0.04 0.04 0.04 0.05 0.05 0.04 0.04 0.04 0.03 0.03 0.04 0.04 0.03 0.04 0.04 0.04 0.03 0.03 0.03 0.03 0.02 0.03 0.03 0.03 0.03
0.02 0.02 0.03 0.03 0.03 0.04 0.04 0.04 0.04 0.04 0.03 0.03 0.03 0.04 0.04 0.04 0.04 0.04 0.04 0.04 0.04 0.05 0.06 0.05 0.06 0.06 0.05 0.03 0.04 0.05 0.05 0.04 0.04 0.04 0.05 0.05 0.05 0.04 0.03 0.03 0.02 0.02 0.03
0.02 0.02 0.02 0.02 0.02 0.03 0.03 0.03 0.03 0.03 0.03 0.02 0.02 0.03 0.03 0.03 0.03 0.03 0.04 0.04 0.05 0.06 0.07 0.07 0.06 0.06 0.05 0.05 0.04 0.04 0.04 0.04 0.04 0.04 0.05 0.06 0.06 0.05 0.04 0.03 0.03 0.03 0.03
0.01 0.01 0.01 0.01 0.02 0.02 0.03 0.03 0.03 0.02 0.02 0.02 0.02 0.02 0.03 0.03 0.03 0.03 0.03 0.03 0.03 0.04 0.05 0.06 0.05 0.05 0.04 0.03 0.03 0.03 0.04 0.05 0.05 0.03 0.03 0.05 0.05 0.05 0.05 0.04 0.04 0.04 0.04
0.01 0.01 0.01 0.01 0.01 0.01 0.02 0.02 0.02 0.02 0.02 0.02 0.02 0.02 0.02 0.02 0.02 0.02 0.02 0.02 0.02 0.02 0.04 0.04 0.04 0.03 0.02 0.02 0.02 0.02 0.02 0.03 0.02 0.02 0.02 0.03 0.04 0.04 0.03 0.03 0.04 0.04 0.05
0.00 0.00 0.00 0.01 0.01 0.01 0.01 0.01 0.02 0.01 0.01 0.01 0.02 0.02 0.02 0.02 0.02 0.03 0.03 0.02 0.02 0.02 0.02 0.03 0.03 0.02 0.01 0.01 0.02 0.02 0.02 0.02 0.02 0.02 0.02 0.03 0.03 0.03 0.03 0.03 0.04 0.04 0.04
0.00 0.00 0.00 0.00 0.00 0.00 0.01 0.01 0.01 0.01 0.01 0.01 0.02 0.02 0.02 0.02 0.02 0.03 0.03 0.03 0.03 0.02 0.02 0.03 0.04 0.04 0.03 0.03 0.03 0.03 0.03 0.03 0.03 0.02 0.02 0.02 0.02 0.02 0.02 0.03 0.03 0.04 0.03
0.00 0.00 0.00 0.00 0.00 0.00 0.01 0.01 0.01 0.01 0.01 0.01 0.02 0.02 0.03 0.03 0.03 0.03 0.03 0.03 0.03 0.03 0.03 0.04 0.04 0.04 0.04 0.03 0.03 0.03 0.04 0.04 0.03 0.03 0.02 0.02 0.02 0.03 0.04 0.04 0.03 0.03 0.03
MSLP
1022.88 1022.52 1022.13 1021.74 1021.36 1021.02 1020.73 1020.47 1020.24 1020.01 1019.78 1019.53 1019.28 1019.04 1018.81 1018.63 1018.49 1018.41 1018.37 1018.35 1018.34 1018.32 1018.27 1018.19 1018.10 1018.01 1017.93 1017.89 1017.88 1017.92 1017.99 1018.09 1018.20 1018.31 1018.43 1018.55 1018.67 1018.80 1018.93 1019.07 1019.19 1019.29 1019.36
1023.31 1022.93 1022.51 1022.08 1021.69 1021.34 1021.05 1020.80 1020.58 1020.38 1020.17 1019.95 1019.72 1019.49 1019.29 1019.13 1019.01 1018.95 1018.93 1018.93 1018.93 1018.91 1018.86 1018.77 1018.66 1018.54 1018.43 1018.34 1018.28 1018.27 1018.29 1018.34 1018.41 1018.50 1018.60 1018.72 1018.86 1019.00 1019.16 1019.32 1019.47 1019.59 1019.67
1023.74 1023.35 1022.91 1022.46 1022.04 1021.68 1021.37 1021.12 1020.91 1020.72 1020.52 1020.31 1020.10 1019.89 1019.70 1019.55 1019.44 1019.40 1019.39 1019.41 1019.43 1019.43 1019.40 1019.32 1019.21 1019.07 1018.94 1018.81 1018.71 1018.64 1018.61 1018.60 1018.62 1018.67 1018.75 1018.85 1018.99 1019.15 1019.33 1019.52 1019.70 1019.85 1019.96
1024.21 1023.82 1023.37 1022.91 1022.48 1022.09 1021.77 1021.51 1021.28 1021.08 1020.88 1020.67 1020.45 1020.24 1020.04 1019.89 1019.80 1019.76 1019.76 1019.80 1019.84 1019.86 1019.85 1019.80 1019.70 1019.57 1019.43 1019.28 1019.15 1019.03 1018.93 1018.86 1018.82 1018.81 1018.84 1018.92 1019.04 1019.21 1019.42 1019.64 1019.85 1020.04 1020.19
1024.73 1024.35 1023.92 1023.46 1023.02 1022.62 1022.28 1022.00 1021.75 1021.52 1021.30 1021.07 1020.83 1020.59 1020.38 1020.21 1020.10 1020.05 1020.05 1020.09 1020.14 1020.19 1020.20 1020.18 1020.12 1020.01 1019.87 1019.72 1019.55 1019.39 1019.23 1019.09 1018.98 1018.91 1018.88 1018.92 1019.02 1019.18 1019.40 1019.65 1019.91 1020.14 1020.34
1025.27 1024.94 1024.54 1024.10 1023.67 1023.27 1022.92 1022.61 1022.34 1022.08 1021.82 1021.55 1021.28 1021.01 1020.76 1020.55 1020.41 1020.32 1020.30 1020.33 1020.38 1020.44 1020.47 1020.48 1020.44 1020.36 1020.25 1020.10 1019.92 1019.72 1019.51 1019.30 1019.11 1018.96 1018.86 1018.84 1018.90 1019.04 1019.26 1019.54 1019.84 1020.13 1020.38
1025.81 1025.54 1025.19 1024.80 1024.40 1024.02 1023.66 1023.34 1023.04 1022.76 1022.46 1022.16 1021.84 1021.52 1021.23 1020.97 1020.77 1020.64 1020.58 1020.56 1020.59 1020.63 1020.68 1020.70 1020.69 1020.64 1020.55 1020.41 1020.22 1020.00 1019.74 1019.47 1019.21 1018.97 1018.80 1018.71 1018.71 1018.82 1019.03 1019.32 1019.65 1019.99 1020.31
1026.33 1026.13 1025.85 1025.52 1025.16 1024.81 1024.47 1024.16 1023.85 1023.54 1023.22 1022.88 1022.53 1022.17 1021.82 1021.51 1021.25 1021.05 1020.92 1020.84 1020.82 1020.83 1020.85 1020.87 1020.88 1020.85 1020.78 1020.66 1020.48 1020.24 1019.96 1019.63 1019.30 1018.98 1018.73 1018.56 1018.50 1018.56 1018.75 1019.03 1019.38 1019.77 1020.14
1026.79 1026.66 1026.45 1026.18 1025.89 1025.59 1025.28 1024.98 1024.68 1024.38 1024.05 1023.69 1023.32 1022.93 1022.54 1022.18 1021.85 1021.58 1021.36 1021.21 1021.11 1021.06 1021.04 1021.04 1021.04 1021.03 1020.98 1020.87 1020.70 1020.46 1020.15 1019.79 1019.40 1019.02 1018.69 1018.44 1018.32 1018.32 1018.47 1018.73 1019.09 1019.50 1019.92
1027.19 1027.11 1026.96 1026.76 1026.53 1026.28 1026.02 1025.76 1025.48 1025.19 1024.88 1024.53 1024.16 1023.76 1023.35 1022.95 1022.56 1022.22 1021.92 1021.68 1021.49 1021.37 1021.28 1021.24 1021.22 1021.20 1021.15 1021.06 1020.91 1020.67 1020.36 1019.98 1019.55 1019.12 1018.73 1018.42 1018.22 1018.17 1018.27 1018.50 1018.84 1019.26 1019.70
1027.52 1027.48 1027.38 1027.23 1027.05 1026.85 1026.64 1026.42 1026.18 1025.92 1025.64 1025.32 1024.97 1024.59 1024.18 1023.76 1023.34 1022.94 1022.57 1022.24 1021.96 1021.75 1021.59 1021.49 1021.42 1021.38 1021.33 1021.25 1021.11 1020.89 1020.59 1020.20 1019.76 1019.31 1018.87 1018.51 1018.27 1018.16 1018.21 1018.40 1018.72 1019.11 1019.55
1027.79 1027.77 1027.70 1027.59 1027.45 1027.29 1027.11 1026.92 1026.72 1026.51 1026.27 1025.99 1025.69 1025.34 1024.96 1024.55 1024.12 1023.68 1023.26 1022.86 1022.50 1022.20 1021.96 1021.79 1021.67 1021.59 1021.53 1021.44 1021.32 1021.12 1020.83 1020.47 1020.04 1019.58 1019.13 1018.75 1018.47 1018.33 1018.33 1018.48 1018.76 1019.12 1019.53
1028.02 1028.01 1027.95 1027.86 1027.74 1027.60 1027.44 1027.28 1027.11 1026.93 1026.73 1026.51 1026.26 1025.96 1025.63 1025.25 1024.84 1024.40 1023.94 1023.49 1023.07 1022.70 1022.38 1022.14 1021.96 1021.84 1021.74 1021.65 1021.53 1021.35 1021.09 1020.76 1020.36 1019.92 1019.49 1019.11 1018.83 1018.66 1018.63 1018.75 1018.97 1019.29 1019.65
1028.24 1028.22 1028.17 1028.08 1027.96 1027.82 1027.67 1027.51 1027.34 1027.19 1027.02 1026.85 1026.65 1026.42 1026.14 1025.82 1025.44 1025.02 1024.56 1024.09 1023.63 1023.20 1022.83 1022.52 1022.28 1022.10 1021.97 1021.86 1021.73 1021.56 1021.34 1021.04 1020.68 1020.29 1019.90 1019.56 1019.28 1019.12 1019.08 1019.16 1019.34 1019.60 1019.90
1028.46 1028.43 1028.37 1028.28 1028.14 1027.98 1027.81 1027.64 1027.47 1027.31 1027.16 1027.02 1026.87 1026.69 1026.47 1026.21 1025.89 1025.51 1025.08 1024.61 1024.14 1023.68 1023.26 1022.90 1022.60 1022.37 1022.20 1022.06 1021.92 1021.75 1021.55 1021.29 1020.98 1020.65 1020.31 1020.01 1019.77 1019.62 1019.57 1019.63 1019.78 1019.99 1020.23
1028.69 1028.66 1028.59 1028.47 1028.32 1028.13 1027.93 1027.72 1027.53 1027.35 1027.20 1027.06 1026.93 1026.80 1026.63 1026.42 1026.16 1025.83 1025.45 1025.01 1024.55 1024.09 1023.65 1023.25 1022.91 1022.63 1022.41 1022.22 1022.06 1021.89 1021.70 1021.47 1021.21 1020.93 1020.65 1020.40 1020.20 1020.08 1020.04 1020.08 1020.19 1020.35 1020.53
1028.92 1028.89 1028.81 1028.68 1028.49 1028.27 1028.03 1027.78 1027.54 1027.33 1027.15 1027.00 1026.88 1026.76 1026.63 1026.47 1026.26 1025.99 1025.66 1025.27 1024.84 1024.39 1023.95 1023.53 1023.16 1022.84 1022.57 1022.35 1022.15 1021.96 1021.77 1021.56 1021.34 1021.10 1020.87 1020.66 1020.49 1020.39 1020.36 1020.39 1020.48 1020.60 1020.73
1029.15 1029.11 1029.01 1028.86 1028.65 1028.39 1028.11 1027.81 1027.53 1027.27 1027.05 1026.87 1026.73 1026.61 1026.49 1026.36 1026.19 1025.97 1025.70 1025.36 1024.98 1024.57 1024.14 1023.73 1023.34 1022.99 1022.68 1022.42 1022.19 1021.97 1021.77 1021.56 1021.34 1021.13 1020.93 1020.75 1020.61 1020.52 1020.48 1020.50 1020.56 1020.65 1020.75
1029.36 1029.30 1029.18 1029.00 1028.76 1028.47 1028.14 1027.81 1027.48 1027.17 1026.90 1026.68 1026.51 1026.36 1026.24 1026.12 1025.98 1025.80 1025.57 1025.29 1024.96 1024.60 1024.20 1023.80 1023.42 1023.05 1022.72 1022.42 1022.16 1021.91 1021.68 1021.46 1021.25 1021.04 1020.85 1020.68 1020.54 1020.44 1020.39 1020.39 1020.43 1020.49 1020.56
1029.53 1029.42 1029.27 1029.05 1028.78 1028.46 1028.10 1027.73 1027.36 1027.00 1026.69 1026.42 1026.20 1026.03 1025.88 1025.75 1025.62 1025.47 1025.28 1025.05 1024.78 1024.46 1024.12 1023.75 1023.38 1023.02 1022.68 1022.36 1022.06 1021.79 1021.54 1021.30 1021.07 1020.85 1020.65 1020.47 1020.31 1020.20 1020.12 1020.08 1020.09 1020.13 1020.19
1029.64 1029.47 1029.26 1029.00 1028.69 1028.34 1027.95 1027.55 1027.15 1026.76 1026.40 1026.09 1025.82 1025.60 1025.42 1025.27 1025.13 1024.99 1024.84 1024.65 1024.43 1024.17 1023.88 1023.56 1023.22 1022.88 1022.54 1022.22 1021.92 1021.63 1021.36 1021.10 1020.85 1020.61 1020.39 1020.18 1020.00 1019.84 1019.73 1019.66 1019.63 1019.64 1019.69
1029.68 1029.44 1029.16 1028.84 1028.49 1028.10 1027.69 1027.26 1026.83 1026.41 1026.03 1025.67 1025.36 1025.10 1024.88 1024.69 1024.54 1024.40 1024.26 1024.11 1023.93 1023.73 1023.49 1023.23 1022.94 1022.64 1022.32 1022.01 1021.72 1021.42 1021.15 1020.88 1020.62 1020.36 1020.12 1019.88 1019.66 1019.47 1019.32 1019.20 1019.14 1019.13 1019.17
1029.68 1029.33 1028.97 1028.59 1028.18 1027.75 1027.31 1026.86 1026.41 1025.97 1025.56 1025.17 1024.82 1024.51 1024.25 1024.03 1023.85 1023.70 1023.57 1023.45 1023.31 1023.16 1022.98 1022.77 1022.54 1022.28 1022.01 1021.74 1021.46 1021.19 1020.92 1020.65 1020.39 1020.13 1019.88 1019.62 1019.38 1019.15 1018.96 1018.80 1018.71 1018.67 1018.70
1029.60 1029.16 1028.71 1028.25 1027.79 1027.32 1026.84 1026.37 1025.90 1025.45 1025.01 1024.59 1024.20 1023.86 1023.56 1023.30 1023.10 1022.93 1022.80 1022.69 1022.59 1022.48 1022.36 1022.21 1022.04 1021.84 1021.62 1021.39 1021.15 1020.91 1020.67 1020.43 1020.19 1019.94 1019.69 1019.43 1019.18 1018.93 1018.71 1018.53 1018.40 1018.35 1018.36
1029.47 1028.94 1028.40 1027.87 1027.34 1026.82 1026.31 1025.82 1025.33 1024.86 1024.39 1023.95 1023.53 1023.15 1022.81 1022.52 1022.29 1022.11 1021.98 1021.88 1021.80 1021.74 1021.66 1021.56 1021.45 1021.31 1021.14 1020.96 1020.78 1020.59 1020.39 1020.19 1019.99 1019.78 1019.55 1019.32 1019.07 1018.83 1018.60 1018.40 1018.26 1018.18 1018.18
1029.26 1028.65 1028.04 1027.44 1026.85 1026.29 1025.74 1025.22 1024.70 1024.21 1023.72 1023.25 1022.80 1022.39 1022.02 1021.70 1021.44 1021.25 1021.12 1021.03 1020.97 1020.93 1020.90 1020.85 1020.79 1020.70 1020.59 1020.47 1020.34 1020.20 1020.06 1019.92 1019.77 1019.61 1019.44 1019.24 1019.03 1018.81 1018.59 1018.39 1018.24 1018.15 1018.13
Thickness
5576 5577 5578 5579 5581 5583 5586 5588 5591 5593 5595 5597 5599 5602 5604 5606 5608 5609 5611 5612 5613 5616 5619 5621 5624 5626 5628 5630 5632 5634 5635 5637 5638 5638 5640 5641 5641 5642 5642 5643 5644 5644 5645
5565 5566 5568 5570 5572 5573 5576 5578 5581 5583 5585 5587 5589 5591 5593 5596 5598 5599 5602 5603 5605 5607 5609 5612 5615 5618 5620 5623 5624 5626 5627 5629 5631 5632 5633 5634 5635 5636 5636 5637 5638 5638 5639
5553 5555 5557 5559 5561 5563 5565 5568 5571 5573 5575 5577 5579 5581 5583 5585 5587 5590 5592 5594 5596 5597 5600 5602 5605 5608 5611 5614 5616 5618 5619 5621 5623 5625 5626 5627 5628 5629 5630 5631 5631 5632 5633
5541 5543 5546 5548 5550 5552 5555 5558 5560 5563 5565 5567 5570 5571 5573 5574 5577 5579 5581 5584 5586 5588 5590 5592 5595 5598 5601 5604 5607 5610 5611 5613 5614 5616 5618 5620 5621 5622 5623 5624 5625 5626 5627
5529 5532 5534 5537 5539 5542 5544 5547 5550 5551 5554 5556 5558 5560 5562 5564 5565 5568 5571 5573 5575 5577 5580 5582 5585 5588 5591 5594 5597 5600 5602 5604 5606 5608 5610 5612 5614 5615 5616 5617 5618 5619 5620
5517 5519 5522 5525 5528 5531 5533 5535 5538 5540 5542 5544 5547 5550 5552 5553 5554 5557 5560 5561 5564 5566 5569 5572 5574 5578 5580 5583 5586 5589 5592 5595 5597 5599 5601 5603 5606 5607 5609 5610 5611 5612 5614
5504 5506 5510 5512 5516 5519 5521 5524 5527 5529 5531 5532 5536 5540 5542 5542 5544 5546 5548 5550 5552 5555 5557 5560 5562 5566 5569 5572 5575 5578 5581 5584 5587 5589 5592 5594 5597 5599 5601 5602 5604 5605 5607
5490 5493 5497 5500 5503 5506 5509 5512 5514 5518 5520 5520 5524 5528 5533 5535 5535 5535 5536 5538 5540 5543 5545 5547 5550 5553 5556 5560 5562 5566 5568 5572 5576 5579 5582 5584 5587 5590 5592 5594 5596 5597 5599
5476 5480 5483 5487 5490 5493 5496 5499 5501 5506 5508 5509 5510 5514 5520 5526 5524 5525 5525 5526 5527 5530 5532 5535 5537 5540 5543 5547 5550 5553 5556 5559 5564 5568 5571 5574 5577 5581 5583 5586 5588 5589 5591
5462 5466 5469 5473 5476 5479 5482 5486 5488 5491 5495 5497 5498 5499 5502 5505 5509 5513 5515 5515 5515 5517 5519 5522 5525 5528 5530 5534 5537 5540 5543 5547 5551 5556 5560 5564 5567 5570 5574 5577 5579 5580 5582
5449 5452 5455 5458 5462 5465 5468 5472 5475 5478 5481 5484 5486 5487 5489 5491 5494 5498 5504 5504 5504 5505 5507 5509 5512 5515 5518 5521 5524 5528 5531 5535 5539 5543 5548 5552 5556 5559 5563 5566 5569 5571 5573
5436 5438 5440 5444 5448 5451 5455 5458 5462 5464 5467 5470 5472 5474 5476 5479 5482 5484 5488 5491 5492 5494 5494 5497 5499 5502 5506 5508 5511 5515 5518 5522 5526 5530 5535 5540 5544 5547 5551 5554 5558 5561 5563
5423 5425 5427 5431 5434 5437 5441 5445 5448 5451 5454 5457 5459 5461 5463 5465 5467 5469 5472 5475 5478 5481 5483 5485 5487 5489 5492 5495 5499 5501 5505 5509 5513 5518 5522 5527 5531 5535 5538 5542 5546 5549 5552
5409 5411 5413 5417 5421 5424 5428 5432 5436 5439 5441 5444 5446 5448 5449 5451 5452 5455 5457 5460 5464 5468 5471 5475 5474 5476 5479 5481 5484 5488 5491 5495 5499 5504 5509 5513 5518 5522 5526 5529 5534 5537 5540
5395 5398 5401 5404 5408 5412 5415 5418 5422 5426 5428 5431 5433 5434 5436 5438 5439 5440 5443 5445 5449 5455 5461 5463 5462 5463 5465 5467 5470 5473 5477 5481 5485 5490 5494 5500 5504 5509 5513 5517 5521 5525 5529
5382 5385 5388 5391 5395 5399 5402 5406 5410 5413 5415 5417 5419 5421 5423 5425 5426 5427 5429 5431 5433 5437 5443 5449 5449 5449 5450 5452 5455 5459 5463 5467 5471 5476 5480 5485 5490 5495 5499 5504 5509 5513 5516
5370 5372 5375 5378 5382 5385 5389 5392 5396 5398 5401 5404 5406 5408 5410 5411 5413 5415 5416 5417 5419 5422 5427 5432 5433 5434 5435 5438 5441 5444 5448 5452 5457 5462 5466 5471 5476 5481 5486 5491 5495 5500 5504
5358 5360 5362 5365 5368 5372 5375 5379 5382 5384 5387 5390 5393 5395 5397 5398 5400 5401 5403 5404 5406 5408 5411 5415 5418 5419 5420 5423 5426 5430 5434 5438 5443 5448 5452 5457 5461 5466 5472 5477 5481 5486 5490
5347 5348 5350 5353 5355 5359 5362 5365 5368 5370 5373 5376 5378 5381 5382 5384 5387 5388 5390 5391 5393 5394 5396 5399 5403 5404 5406 5408 5410 5415 5419 5424 5428 5433 5438 5442 5447 5452 5457 5462 5467 5473 5477
5335 5337 5338 5340 5342 5345 5348 5351 5354 5357 5359 5362 5364 5366 5368 5370 5372 5374 5376 5378 5379 5380 5381 5384 5387 5390 5392 5393 5395 5400 5404 5409 5414 5418 5423 5428 5432 5437 5442 5448 5455 5459 5463
5323 5324 5326 5328 5329 5332 5335 5337 5340 5342 5345 5348 5350 5352 5354 5355 5357 5359 5361 5363 5364 5366 5367 5369 5372 5375 5378 5379 5381 5385 5389 5393 5398 5403 5408 5413 5418 5423 5427 5433 5438 5444 5449
5312 5312 5314 5315 5317 5319 5321 5323 5325 5328 5331 5333 5336 5338 5340 5341 5343 5344 5345 5347 5349 5351 5353 5354 5357 5360 5363 5365 5367 5369 5373 5378 5385 5390 5392 5398 5401 5407 5413 5418 5423 5429 5434
5300 5301 5302 5303 5304 5306 5307 5310 5311 5313 5316 5319 5321 5324 5325 5327 5327 5329 5331 5332 5334 5335 5337 5339 5343 5346 5348 5351 5352 5354 5357 5362 5370 5374 5376 5384 5387 5393 5398 5403 5408 5414 5419
5289 5290 5290 5291 5292 5294 5295 5296 5298 5300 5303 5305 5307 5308 5310 5312 5313 5314 5316 5318 5320 5323 5324 5326 5330 5332 5333 5334 5336 5338 5342 5347 5353 5358 5361 5368 5375 5379 5384 5389 5394 5399 5405
5277 5278 5279 5280 5281 5282 5282 5284 5284 5287 5289 5292 5293 5294 5296 5298 5299 5299 5301 5304 5307 5309 5309 5311 5314 5316 5318 5320 5321 5323 5327 5332 5340 5345 5348 5354 5361 5364 5370 5375 5380 5384 5389
5266 5266 5267 5268 5269 5270 5270 5271 5271 5274 5276 5279 5280 5282 5283 5285 5286 5285 5286 5289 5292 5294 5295 5298 5300 5303 5305 5306 5308 5310 5314 5319 5325 5331 5337 5339 5345 5347 5354 5361 5365 5369 5373